Content
SEND FEEDBACK

Daily
Averages
Monthly
Summary
Jamaica

MONTEGO BAY, JAMAICA


Home > Caribbean > Jamaica
Elevation: 10 feet     Latitude: 18 30N     Longitude: 077 55W

WEATHER
 
SELECT A DAY
Number of Records: 168,360;   Date Range: 7/1/96 - 8/31/14
 
SHARE

PRINT THIS DATA

[ ← Previous Day ]
WEATHER ALMANAC - OCTOBER 25, 2013
[ Next Day → ]
[ °C ]   °F
Weather ElementAverageHighLow
Temperature84.2 °F91.4 °F (2:00 pm)77 °F (11:00 pm)
Dewpoint75.4 °F79 °F (1:00 pm)71.6 °F (6:00 am)
Humidity74 %94 % (11:00 pm)53 % (10:00 am)
Barometer29.92 in29.98 in (7:00 am)29.86 in (2:00 pm)
Wind Speed9.8 mph19.6 mph (3:00 pm)
Weather ElementAverage
Visibility7.9 mi
Wind DirectionESE (101 °)

Weather ElementTotal
Precipitation---
Cooling Degree Days19.2 (Base 65)
Growing Degree Days34.2 (Base 50)
Averaged from 31 records on October 25, 2013
WEATHER CONDITIONS BREAKOUT
WIND DIRECTION BREAKOUT
WEATHER BY HOUR - OCTOBER 25, 2013
[ °C ]   °F
Local TimeTemperatureDewpointHumidityBarometerVisibilityWind DirectionWind SpeedGust SpeedPrecipitationEventsConditions
1:00 AM82.0 °F75.0 °F75 %29.92 in12.0 miSE (130°)9.2 mphScattered Clouds
1:00 AM82.4 °F75.2 °F79 %29.92 in6.2 miSE (130°)9.2 mphThunderstormPartly Cloudy
2:00 AM80.6 °F73.4 °F79 %29.92 in6.2 miSSE (150°)6.9 mphThunderstormPartly Cloudy
3:00 AM80.6 °F73.4 °F79 %29.89 in6.2 miSSE (150°)4.6 mphThunderstormPartly Cloudy
4:00 AM81.0 °F75.0 °F77 %29.92 in12.0 miCalmScattered Clouds
4:00 AM80.6 °F75.2 °F84 %29.92 in6.2 miCalmThunderstormPartly Cloudy
5:00 AM80.6 °F73.4 °F79 %29.92 in6.2 miESE (120°)3.5 mphThunderstormPartly Cloudy
6:00 AM80.6 °F71.6 °F74 %29.95 in6.2 miCalmPartly Cloudy
7:00 AM82.0 °F76.0 °F76 %29.98 in16.0 miESE (120°)8.1 mphScattered Clouds
7:00 AM82.4 °F75.2 °F79 %29.98 in6.2 miESE (120°)8.1 mphPartly Cloudy
8:00 AM82.4 °F73.4 °F74 %29.98 in6.2 miSSE (160°)5.8 mphPartly Cloudy
9:00 AM86.0 °F73.4 °F66 %29.95 in6.2 miSSE (150°)10.4 mphPartly Cloudy
10:00 AM87.0 °F72.0 °F53 %29.94 in16.0 miEast (100°)12.7 mphPartly Cloudy
10:00 AM87.8 °F71.6 °F58 %29.92 in6.2 miEast (100°)12.7 mphScattered Clouds
11:00 AM87.8 °F71.6 °F58 %29.92 in6.2 miEast (100°)18.4 mphPartly Cloudy
12:00 PM87.8 °F75.2 °F66 %29.89 in6.2 miEast (100°)17.3 mphPartly Cloudy
1:00 PM90.0 °F79.0 °F63 %29.90 in16.0 miEast (90°)18.4 mphPartly Cloudy
1:00 PM89.6 °F78.8 °F70 %29.89 in6.2 miEast (90°)18.4 mphScattered Clouds
2:00 PM91.4 °F77.0 °F63 %29.86 in6.2 miEast (90°)18.4 mphPartly Cloudy
3:00 PM87.8 °F77.0 °F70 %29.86 in6.2 miEast (100°)19.6 mphScattered Clouds
3:45 PM86.0 °F75.2 °F70 %29.86 in6.2 miEast (100°)19.6 mphThunderstormThunderstorm
4:00 PM86.0 °F77.0 °F74 %29.86 in6.2 miESE (110°)19.6 mphRain-ThunderstormLight Thunderstorms and Rain
5:00 PM84.2 °F77.0 °F79 %29.86 in6.2 miENE (70°)13.8 mphScattered Clouds
6:00 PM84.2 °F77.0 °F79 %29.89 in6.2 miEast (80°)9.2 mphThunderstormPartly Cloudy
7:00 PM84.0 °F78.0 °F78 %29.93 in12.0 miEast (90°)6.9 mphScattered Clouds
7:00 PM84.2 °F78.8 °F84 %29.92 in6.2 miEast (90°)6.9 mphThunderstormPartly Cloudy
8:00 PM84.2 °F77.0 °F79 %29.95 in6.2 miEast (80°)5.8 mphThunderstormPartly Cloudy
9:00 PM84.2 °F77.0 °F79 %29.95 in6.2 miEast (80°)3.5 mphThunderstormPartly Cloudy
10:00 PM83.0 °F77.0 °F77 %29.98 in12.0 miEast (90°)5.8 mphPartly Cloudy
10:00 PM84.2 °F77.0 °F79 %29.98 in6.2 miEast (90°)5.8 mphPartly Cloudy
11:00 PM77.0 °F75.2 °F94 %29.95 in5.0 miSSE (150°)5.8 mphRain-ThunderstormLight Thunderstorms and Rain
Hourly data recorded from MKJS, located miles away from Montego Bay, Jamaica







STORIES FROM OUR PARTNERS